User: anonymous   Login
Location: Stamford Observatory
(41.1241°N, 73.5498°W)
Time: 02:22:07
(UTC-04:00)
Language:

IRS-P3 - Orbit

View from above orbital plane
View from above orbital plane
View from above satellite
View from above satellite

Ground track
Ground track

The orbit data is extracted from the following two-line orbital elements,

1 23827U 96017A   15149.46100944  .00000055  00000-0  44444-4 0  9997
2 23827 098.6572 086.7029 0004386 056.5891 303.5706 14.22363631995826
Epoch (UTC): 29 May 2015 11:03:51
Eccentricity: 0.0004386
inclination: 98.6572°
perigee height: 814 km
apogee height: 820 km
right ascension of ascending node: 86.7029°
argument of perigee: 56.5891°
revolutions per day: 14.22363631
mean anomaly at epoch: 303.5706°
orbit number at epoch: 99582

The dashed part of the orbit path shows where the satellite is in the earth's shadow,  

DLR